Location: Newark
(41.8083°N, 72.2500°W)
Time: 10:36:22
(UTC+00:00)

Explorer 11/Cluster Stage 4 - Pass Details

Date: 08 December 2021
Orbit: 467 x 1255 km, 28.8° (Epoch: 24 January)

Event Time Altitude Azimuth Distance (km) Brightness Sun altitude
Rises 09:28:55 0° 254° (WSW) 3,617 - -28.1°
Reaches altitude 10° 09:32:27 10° 235° (SW) 2,820 - -27.4°
Exits shadow 09:35:44 17° 207° (SSW) 2,485 8.9 -26.8°
Maximum altitude 09:36:41 17° 198° (SSW) 2,490 9.0 -26.6°
Drops below altitude 10° 09:41:16 10° 161° (SSE) 3,100 9.9 -25.8°
Sets 09:45:26 0° 143° (SE) 4,142 10.9 -25.0°
